timestamp,wind_dir_avg,wind_spd_avg,wind_spd_max_dir,wind_spd_gust,battery_voltage,lat,long
2024-04-02 00:04:00+00:00,29.0,5.77,32.0,6.69,12.17,47.59359,-54.27349
2024-04-02 00:14:00+00:00,315.0,0.01,18.0,0.0,12.25,47.59359,-54.27349
2024-04-02 00:24:00+00:00,25.0,5.46,25.0,5.57,12.25,47.59359,-54.27349
2024-04-02 00:34:00+00:00,315.0,0.01,2.0,0.0,12.25,47.59359,-54.27349
2024-04-02 00:44:00+00:00,315.0,0.01,2.0,0.0,12.25,47.59359,-54.27349
2024-04-02 00:54:00+00:00,315.0,0.01,2.0,0.0,12.25,47.59359,-54.27349
2024-04-02 01:04:00+00:00,315.0,0.01,2.0,0.0,12.25,47.59359,-54.27349
2024-04-02 01:14:01+00:00,315.0,0.01,2.0,0.0,12.17,47.59359,-54.27349
2024-04-02 01:24:01+00:00,352.0,7.0,345.0,7.88,12.17,47.59359,-54.27349
2024-04-02 01:34:01+00:00,350.0,6.69,345.0,7.76,12.17,47.59359,-54.27349
2024-04-02 01:44:01+00:00,1.0,5.19,2.0,5.2,12.17,47.59359,-54.27349
2024-04-02 01:54:01+00:00,315.0,0.01,344.0,0.0,12.17,47.59359,-54.27349
2024-04-02 02:04:01+00:00,344.0,5.45,344.0,6.66,12.17,47.59359,-54.27349
2024-04-02 02:14:00+00:00,354.0,6.8,348.0,7.72,12.17,47.59359,-54.27349
2024-04-02 02:24:00+00:00,356.0,6.79,348.0,7.55,12.17,47.59359,-54.27349
2024-04-02 02:34:00+00:00,343.0,6.18,343.0,6.2,12.17,47.59359,-54.27349
2024-04-02 02:44:00+00:00,315.0,0.01,343.0,0.0,12.17,47.59359,-54.27349
2024-04-02 02:54:00+00:00,315.0,0.01,343.0,0.0,12.17,47.59359,-54.27349
2024-04-02 03:04:00+00:00,15.0,6.64,30.0,8.56,12.17,47.59359,-54.27349
2024-04-02 03:14:00+00:00,26.0,7.57,22.0,9.09,12.17,47.59359,-54.27349
2024-04-02 03:24:00+00:00,28.0,8.05,42.0,9.65,12.17,47.59359,-54.27349
2024-04-02 03:34:00+00:00,28.0,7.76,38.0,9.3,12.17,47.59359,-54.27349
2024-04-02 03:44:00+00:00,38.0,9.18,48.0,11.5,12.17,47.59359,-54.27349
2024-04-02 03:54:00+00:00,34.0,8.13,49.0,11.57,12.17,47.59359,-54.27349
2024-04-02 04:04:00+00:00,43.0,10.59,49.0,12.74,12.17,47.59359,-54.27349
2024-04-02 04:14:00+00:00,41.0,9.33,51.0,11.46,12.09,47.59359,-54.27349
2024-04-02 04:24:00+00:00,49.0,12.3,49.0,12.67,12.09,47.59359,-54.27349
2024-04-02 04:34:00+00:00,49.0,11.98,53.0,12.05,12.09,47.59359,-54.27349
2024-04-02 04:44:00+00:00,315.0,0.01,50.0,0.0,12.09,47.59359,-54.27349
2024-04-02 04:54:00+00:00,41.0,10.12,48.0,12.05,12.09,47.59359,-54.27349
2024-04-02 05:04:00+00:00,43.0,10.63,47.0,12.84,12.09,47.59359,-54.27349
2024-04-02 05:14:00+00:00,48.0,12.72,48.0,13.05,12.09,47.59359,-54.27349
2024-04-02 05:24:00+00:00,49.0,11.08,51.0,11.98,12.09,47.59359,-54.27349
2024-04-02 05:34:00+00:00,44.0,10.59,44.0,10.6,12.09,47.59359,-54.27349
2024-04-02 05:44:00+00:00,39.0,10.05,46.0,10.8,12.09,47.59359,-54.27349
2024-04-02 05:54:00+00:00,315.0,0.01,50.0,0.0,12.09,47.59359,-54.27349
2024-04-02 06:04:00+00:00,315.0,0.01,44.0,0.0,12.09,47.59359,-54.27349
2024-04-02 06:14:00+00:00,48.0,11.71,51.0,12.39,12.01,47.59359,-54.27349
2024-04-02 06:24:00+00:00,47.0,11.72,47.0,12.62,12.01,47.59359,-54.27349
2024-04-02 06:34:00+00:00,42.0,10.36,42.0,11.12,12.01,47.59359,-54.27349
2024-04-02 06:44:00+00:00,49.0,12.07,49.0,12.08,12.01,47.59359,-54.27349
2024-04-02 06:54:00+00:00,46.0,11.12,48.0,13.31,12.01,47.59359,-54.27349
2024-04-02 07:04:00+00:00,47.0,11.69,50.0,12.65,12.01,47.59359,-54.27349
2024-04-02 07:14:00+00:00,43.0,10.96,48.0,12.73,12.01,47.59359,-54.27349
2024-04-02 07:24:00+00:00,45.0,11.29,49.0,12.12,12.01,47.59359,-54.27349
2024-04-02 07:34:00+00:00,48.0,11.66,48.0,11.67,12.01,47.59359,-54.27349
2024-04-02 07:44:00+00:00,315.0,0.01,47.0,0.0,12.01,47.59359,-54.27349
2024-04-02 07:54:00+00:00,315.0,0.01,37.0,0.0,12.01,47.59359,-54.27349
2024-04-02 08:04:00+00:00,315.0,0.01,41.0,0.0,12.01,47.59359,-54.27349
2024-04-02 08:14:00+00:00,315.0,0.01,49.0,0.0,12.01,47.59359,-54.27349
2024-04-02 08:24:00+00:00,315.0,0.01,44.0,0.0,12.01,47.59359,-54.27349
2024-04-02 08:34:00+00:00,315.0,0.01,45.0,0.0,12.01,47.59359,-54.27349
2024-04-02 08:44:00+00:00,48.0,11.11,48.0,11.12,12.01,47.59359,-54.27349
2024-04-02 08:54:00+00:00,46.0,11.34,48.0,12.4,12.01,47.59359,-54.27349
2024-04-02 09:04:00+00:00,50.0,11.97,49.0,12.35,12.01,47.59359,-54.27349
2024-04-02 09:14:00+00:00,52.0,11.82,52.0,11.83,12.01,47.59359,-54.27349
2024-04-02 09:24:00+00:00,37.0,10.35,31.0,11.9,12.01,47.59359,-54.27349
2024-04-02 09:34:00+00:00,36.0,11.12,52.0,13.6,12.01,47.59359,-54.27349
2024-04-02 09:44:00+00:00,315.0,0.01,38.0,0.0,12.01,47.59359,-54.27349
2024-04-02 09:54:00+00:00,315.0,0.01,30.0,0.0,12.01,47.59359,-54.27349
2024-04-02 10:04:00+00:00,315.0,0.01,45.0,0.0,12.01,47.59359,-54.27349
2024-04-02 10:14:00+00:00,34.0,13.0,40.0,13.35,12.01,47.59359,-54.27349
2024-04-02 10:24:00+00:00,45.0,11.95,45.0,11.96,12.01,47.59359,-54.27349
2024-04-02 10:34:00+00:00,315.0,0.01,42.0,0.0,12.01,47.59359,-54.27349
2024-04-02 10:44:00+00:00,315.0,0.01,50.0,0.0,12.01,47.59359,-54.27349
2024-04-02 10:54:00+00:00,315.0,0.01,41.0,0.0,12.01,47.59359,-54.27349
2024-04-02 11:04:00+00:00,315.0,0.01,49.0,0.0,12.01,47.59359,-54.27349
2024-04-02 11:14:00+00:00,315.0,0.01,51.0,0.0,12.33,47.59359,-54.27349
2024-04-02 11:24:00+00:00,315.0,0.01,51.0,0.0,12.33,47.59359,-54.27349
2024-04-02 11:34:00+00:00,315.0,0.01,51.0,0.0,12.33,47.59359,-54.27349
2024-04-02 11:44:00+00:00,315.0,0.01,51.0,0.0,12.33,47.59359,-54.27349
2024-04-02 11:54:00+00:00,315.0,0.01,51.0,0.0,12.33,47.59359,-54.27349
2024-04-02 12:04:00+00:00,315.0,0.01,26.0,0.0,12.33,47.59359,-54.27349
2024-04-02 12:14:01+00:00,41.0,10.34,47.0,10.8,12.97,47.59359,-54.27349
2024-04-02 12:24:01+00:00,315.0,0.01,35.0,0.0,12.97,47.59359,-54.27349
2024-04-02 12:34:01+00:00,315.0,0.01,35.0,0.0,12.97,47.59359,-54.27349
2024-04-02 12:44:01+00:00,315.0,0.01,52.0,0.0,12.97,47.59359,-54.27349
2024-04-02 12:54:01+00:00,315.0,0.01,35.0,0.0,12.97,47.59359,-54.27349
2024-04-02 13:04:01+00:00,315.0,0.01,35.0,0.0,12.97,47.59359,-54.27349
2024-04-02 13:14:00+00:00,315.0,0.01,35.0,0.0,13.68,47.59359,-54.27349
2024-04-02 13:24:00+00:00,315.0,0.01,35.0,0.0,13.68,47.59359,-54.27349
2024-04-02 13:34:00+00:00,315.0,0.01,35.0,0.0,13.68,47.59359,-54.27349
2024-04-02 13:44:00+00:00,315.0,0.01,35.0,0.0,13.68,47.59359,-54.27349
2024-04-02 13:54:00+00:00,315.0,0.01,53.0,0.0,13.68,47.59359,-54.27349
2024-04-02 14:04:00+00:00,315.0,0.01,53.0,0.0,13.68,47.59359,-54.27349
2024-04-02 14:14:00+00:00,315.0,0.01,53.0,0.0,13.6,47.59359,-54.27349
2024-04-02 14:24:00+00:00,315.0,0.01,53.0,0.0,13.6,47.59359,-54.27349
2024-04-02 14:34:00+00:00,315.0,0.01,48.0,0.0,13.6,47.59359,-54.27349
2024-04-02 14:44:00+00:00,315.0,0.01,48.0,0.0,13.6,47.59359,-54.27349
2024-04-02 14:54:00+00:00,315.0,0.01,44.0,0.0,13.6,47.59359,-54.27349
2024-04-02 15:04:00+00:00,315.0,0.01,47.0,0.0,13.6,47.59359,-54.27349
2024-04-02 15:14:00+00:00,315.0,0.01,48.0,0.0,14.32,47.59359,-54.27349
2024-04-02 15:24:00+00:00,28.0,8.73,28.0,8.74,14.32,47.59359,-54.27349
2024-04-02 15:34:00+00:00,30.0,13.99,31.0,15.36,14.32,47.59359,-54.27349
2024-04-02 15:44:00+00:00,315.0,0.01,43.0,0.0,14.32,47.59359,-54.27349
2024-04-02 15:54:00+00:00,25.0,14.21,25.0,14.84,14.32,47.59359,-54.27349
2024-04-02 16:04:00+00:00,41.0,12.89,43.0,14.48,14.32,47.59359,-54.27349
2024-04-02 16:14:01+00:00,41.0,11.01,44.0,12.3,14.24,47.59359,-54.27349
2024-04-02 16:24:01+00:00,315.0,0.01,56.0,0.0,14.24,47.59359,-54.27349
2024-04-02 16:34:01+00:00,315.0,0.01,15.0,0.0,14.24,47.59359,-54.27349
2024-04-02 16:44:01+00:00,315.0,0.01,15.0,0.0,14.24,47.59359,-54.27349
2024-04-02 16:54:01+00:00,315.0,0.01,15.0,0.0,14.24,47.59359,-54.27349
2024-04-02 17:04:01+00:00,26.0,8.28,27.0,8.29,14.24,47.59359,-54.27349
2024-04-02 17:14:00+00:00,315.0,0.01,23.0,0.0,14.0,47.59359,-54.27349
2024-04-02 17:24:00+00:00,315.0,0.01,32.0,0.0,14.0,47.59359,-54.27349
2024-04-02 17:34:00+00:00,50.0,10.73,50.0,10.74,14.0,47.59359,-54.27349
2024-04-02 17:44:00+00:00,315.0,0.01,51.0,0.0,14.0,47.59359,-54.27349
2024-04-02 17:54:00+00:00,315.0,0.01,41.0,0.0,14.0,47.59359,-54.27349
2024-04-02 18:04:00+00:00,315.0,0.01,41.0,0.0,14.0,47.59359,-54.27349
2024-04-02 18:14:01+00:00,315.0,0.01,41.0,0.0,14.4,47.59359,-54.27349
2024-04-02 18:24:01+00:00,28.0,12.71,27.0,13.21,14.4,47.59359,-54.27349
2024-04-02 18:34:01+00:00,315.0,0.01,28.0,0.0,14.4,47.59359,-54.27349
2024-04-02 18:44:01+00:00,315.0,0.01,30.0,0.0,14.4,47.59359,-54.27349
2024-04-02 18:54:01+00:00,315.0,0.01,27.0,0.0,14.4,47.59359,-54.27349
2024-04-02 19:04:01+00:00,315.0,0.01,27.0,0.0,14.4,47.59359,-54.27349
2024-04-02 19:14:00+00:00,315.0,0.01,27.0,0.0,13.44,47.59359,-54.27349
2024-04-02 19:24:00+00:00,315.0,0.01,27.0,0.0,13.44,47.59359,-54.27349
2024-04-02 19:34:00+00:00,315.0,0.01,27.0,0.0,13.44,47.59359,-54.27349
2024-04-02 19:44:00+00:00,315.0,0.01,27.0,0.0,13.44,47.59359,-54.27349
2024-04-02 19:54:00+00:00,315.0,0.01,27.0,0.0,13.44,47.59359,-54.27349
2024-04-02 20:04:00+00:00,315.0,0.01,27.0,0.0,13.44,47.59359,-54.27349
2024-04-02 20:14:00+00:00,315.0,0.01,27.0,0.0,13.44,47.59359,-54.27349
2024-04-02 20:24:00+00:00,315.0,0.01,27.0,0.0,13.44,47.59359,-54.27349
2024-04-02 20:34:00+00:00,315.0,0.01,27.0,0.0,13.44,47.59359,-54.27349
2024-04-02 20:44:00+00:00,315.0,0.01,27.0,0.0,13.44,47.59359,-54.27349
2024-04-02 20:54:00+00:00,315.0,0.01,27.0,0.0,13.44,47.59359,-54.27349
2024-04-02 21:04:00+00:00,315.0,0.01,27.0,0.0,13.44,47.59359,-54.27349
2024-04-02 21:14:00+00:00,315.0,0.01,27.0,0.0,13.29,47.59359,-54.27349
2024-04-02 21:24:00+00:00,23.0,9.45,23.0,9.46,13.29,47.59359,-54.27349
2024-04-02 21:34:00+00:00,315.0,0.01,33.0,0.0,13.29,47.59359,-54.27349
2024-04-02 21:44:00+00:00,315.0,0.01,27.0,0.0,13.29,47.59359,-54.27349
2024-04-02 21:54:00+00:00,315.0,0.01,27.0,0.0,13.29,47.59359,-54.27349
2024-04-02 22:04:00+00:00,315.0,0.01,32.0,0.0,13.29,47.59359,-54.27349
2024-04-02 22:14:00+00:00,315.0,0.01,34.0,0.0,12.73,47.59359,-54.27349
2024-04-02 22:24:00+00:00,28.0,12.84,28.0,12.86,12.73,47.59359,-54.27349
2024-04-02 22:34:00+00:00,315.0,0.01,25.0,0.0,12.73,47.59359,-54.27349
2024-04-02 22:44:00+00:00,315.0,0.01,27.0,0.0,12.73,47.59359,-54.27349
2024-04-02 22:54:00+00:00,26.0,9.76,34.0,11.23,12.73,47.59359,-54.27349
2024-04-02 23:04:00+00:00,315.0,0.01,35.0,0.0,12.73,47.59359,-54.27349
2024-04-02 23:14:00+00:00,21.0,10.33,21.0,11.09,12.33,47.59359,-54.27349
2024-04-02 23:24:00+00:00,24.0,8.95,24.0,9.61,12.33,47.59359,-54.27349
2024-04-02 23:34:00+00:00,28.0,9.63,46.0,11.64,12.33,47.59359,-54.27349
2024-04-02 23:44:00+00:00,30.0,9.78,40.0,10.7,12.33,47.59359,-54.27349
2024-04-02 23:54:00+00:00,19.0,11.99,19.0,12.0,12.33,47.59359,-54.27349
